Year,Month,Day,Hour,Minute,Value (Times are PST for temperature in C)
2014,05,02,00,00,15.50
2014,05,02,00,01,15.40
2014,05,02,00,02,15.40
2014,05,02,00,03,15.40
2014,05,02,00,04,15.30
2014,05,02,00,05,15.30
2014,05,02,00,06,15.30
2014,05,02,00,07,15.30
2014,05,02,00,08,15.30
2014,05,02,00,09,15.30
2014,05,02,00,10,15.20
2014,05,02,00,11,15.10
2014,05,02,00,12,15.10
2014,05,02,00,13,15.00
2014,05,02,00,14,15.00
2014,05,02,00,15,14.90
2014,05,02,00,16,14.90
2014,05,02,00,17,14.90
2014,05,02,00,18,14.90
2014,05,02,00,19,15.00
2014,05,02,00,20,15.00
2014,05,02,00,21,14.90
2014,05,02,00,22,14.90
2014,05,02,00,23,14.90
2014,05,02,00,24,14.90
2014,05,02,00,25,14.90
2014,05,02,00,26,14.90
2014,05,02,00,27,14.80
2014,05,02,00,28,14.80
2014,05,02,00,29,14.70
2014,05,02,00,30,14.70
2014,05,02,00,31,14.60
2014,05,02,00,32,14.60
2014,05,02,00,33,14.50
2014,05,02,00,34,14.50
2014,05,02,00,35,14.50
2014,05,02,00,36,14.50
2014,05,02,00,37,14.40
2014,05,02,00,38,14.40
2014,05,02,00,39,14.40
2014,05,02,00,40,14.40
2014,05,02,00,41,14.30
2014,05,02,00,42,14.30
2014,05,02,00,43,14.30
2014,05,02,00,44,14.30
2014,05,02,00,45,14.20
2014,05,02,00,46,14.20
2014,05,02,00,47,14.20
2014,05,02,00,48,14.20
2014,05,02,00,49,14.10
2014,05,02,00,50,14.10
2014,05,02,00,51,14.10
2014,05,02,00,52,14.00
2014,05,02,00,53,14.00
2014,05,02,00,54,13.90
2014,05,02,00,55,13.80
2014,05,02,00,56,13.80
2014,05,02,00,57,13.80
2014,05,02,00,58,13.80
2014,05,02,00,59,13.80
2014,05,02,01,00,13.80
2014,05,02,01,01,13.80
2014,05,02,01,02,13.80
2014,05,02,01,03,13.80
2014,05,02,01,04,13.70
2014,05,02,01,05,13.70
2014,05,02,01,06,13.70
2014,05,02,01,07,13.60
2014,05,02,01,08,13.60
2014,05,02,01,09,13.60
2014,05,02,01,10,13.60
2014,05,02,01,11,13.60
2014,05,02,01,12,13.60
2014,05,02,01,13,13.70
2014,05,02,01,14,13.70
2014,05,02,01,15,13.70
2014,05,02,01,16,13.70
2014,05,02,01,17,13.70
2014,05,02,01,18,13.70
2014,05,02,01,19,13.70
2014,05,02,01,20,13.70
2014,05,02,01,21,13.70
2014,05,02,01,22,13.70
2014,05,02,01,23,13.70
2014,05,02,01,24,13.70
2014,05,02,01,25,13.70
2014,05,02,01,26,13.60
2014,05,02,01,27,13.60
2014,05,02,01,28,13.60
2014,05,02,01,29,13.60
2014,05,02,01,30,13.70
2014,05,02,01,31,13.70
2014,05,02,01,32,13.70
2014,05,02,01,33,13.80
2014,05,02,01,34,13.80
2014,05,02,01,35,13.80
2014,05,02,01,36,13.80
2014,05,02,01,37,13.80
2014,05,02,01,38,13.80
2014,05,02,01,39,13.90
2014,05,02,01,40,13.90
2014,05,02,01,41,13.90
2014,05,02,01,42,13.90
2014,05,02,01,43,13.90
2014,05,02,01,44,14.00
2014,05,02,01,45,14.10
2014,05,02,01,46,14.20
2014,05,02,01,47,14.20
2014,05,02,01,48,14.20
2014,05,02,01,49,14.20
2014,05,02,01,50,14.10
2014,05,02,01,51,14.10
2014,05,02,01,52,14.10
2014,05,02,01,53,14.00
2014,05,02,01,54,13.90
2014,05,02,01,55,13.80
2014,05,02,01,56,13.80
2014,05,02,01,57,13.70
2014,05,02,01,58,13.60
2014,05,02,01,59,13.40
2014,05,02,02,00,13.40
2014,05,02,02,01,13.30
2014,05,02,02,02,13.20
2014,05,02,02,03,13.20
2014,05,02,02,04,13.00
2014,05,02,02,05,12.90
2014,05,02,02,06,12.80
2014,05,02,02,07,12.80
2014,05,02,02,08,12.70
2014,05,02,02,09,12.70
2014,05,02,02,10,12.70
2014,05,02,02,11,12.60
2014,05,02,02,12,12.60
2014,05,02,02,13,12.50
2014,05,02,02,14,12.50
2014,05,02,02,15,12.50
2014,05,02,02,16,12.50
2014,05,02,02,17,12.50
2014,05,02,02,18,12.50
2014,05,02,02,19,12.50
2014,05,02,02,20,12.50
2014,05,02,02,21,12.60
2014,05,02,02,22,12.60
2014,05,02,02,23,12.60
2014,05,02,02,24,12.60
2014,05,02,02,25,12.60
2014,05,02,02,26,12.50
2014,05,02,02,27,12.50
2014,05,02,02,28,12.50
2014,05,02,02,29,12.50
2014,05,02,02,30,12.50
2014,05,02,02,31,12.50
2014,05,02,02,32,12.50
2014,05,02,02,33,12.50
2014,05,02,02,34,12.50
2014,05,02,02,35,12.50
2014,05,02,02,36,12.40
2014,05,02,02,37,12.40
2014,05,02,02,38,12.40
2014,05,02,02,39,12.40
2014,05,02,02,40,12.40
2014,05,02,02,41,12.40
2014,05,02,02,42,12.30
2014,05,02,02,43,12.30
2014,05,02,02,44,12.30
2014,05,02,02,45,12.20
2014,05,02,02,46,12.20
2014,05,02,02,47,12.20
2014,05,02,02,48,12.20
2014,05,02,02,49,12.20
2014,05,02,02,50,12.20
2014,05,02,02,51,12.10
2014,05,02,02,52,12.10
2014,05,02,02,53,12.10
2014,05,02,02,54,12.10
2014,05,02,02,55,12.10
2014,05,02,02,56,12.10
2014,05,02,02,57,12.10
2014,05,02,02,58,12.10
2014,05,02,02,59,12.20
2014,05,02,03,00,12.20
2014,05,02,03,01,12.30
2014,05,02,03,02,12.30
2014,05,02,03,03,12.30
2014,05,02,03,06,12.50
2014,05,02,03,07,12.50
2014,05,02,03,08,12.60
2014,05,02,03,09,12.70
2014,05,02,03,10,12.70
2014,05,02,03,11,12.80
2014,05,02,03,12,12.90
2014,05,02,03,13,12.90
2014,05,02,03,14,13.00
2014,05,02,03,15,13.00
2014,05,02,03,16,13.10
2014,05,02,03,17,13.10
2014,05,02,03,18,13.10
2014,05,02,03,19,13.10
2014,05,02,03,20,13.10
2014,05,02,03,21,13.10
2014,05,02,03,22,13.10
2014,05,02,03,23,13.10
2014,05,02,03,24,13.10
2014,05,02,03,25,13.00
2014,05,02,03,26,13.00
2014,05,02,03,27,13.00
2014,05,02,03,28,12.90
2014,05,02,03,29,12.80
2014,05,02,03,30,12.80
2014,05,02,03,31,12.80
2014,05,02,03,32,12.70
2014,05,02,03,33,12.70
2014,05,02,03,34,12.60
2014,05,02,03,35,12.60
2014,05,02,03,36,12.50
2014,05,02,03,37,12.40
2014,05,02,03,38,12.30
2014,05,02,03,39,12.30
2014,05,02,03,40,12.30
2014,05,02,03,41,12.20
2014,05,02,03,42,12.20
2014,05,02,03,43,12.20
2014,05,02,03,44,12.20
2014,05,02,03,45,12.10
2014,05,02,03,46,12.10
2014,05,02,03,47,12.10
2014,05,02,03,48,12.10
2014,05,02,03,49,12.20
2014,05,02,03,50,12.20
2014,05,02,03,51,12.20
2014,05,02,03,52,12.10
2014,05,02,03,53,12.10
2014,05,02,03,54,12.10
2014,05,02,03,55,12.10
2014,05,02,03,56,12.10
2014,05,02,03,57,12.00
2014,05,02,03,58,12.00
2014,05,02,03,59,11.90
2014,05,02,04,00,11.80
2014,05,02,04,01,11.80
2014,05,02,04,02,11.80
2014,05,02,04,03,11.70
2014,05,02,04,04,11.60
2014,05,02,04,05,11.60
2014,05,02,04,06,11.60
2014,05,02,04,07,11.60
2014,05,02,04,08,11.60
2014,05,02,04,09,11.50
2014,05,02,04,10,11.50
2014,05,02,04,11,11.50
2014,05,02,04,12,11.50
2014,05,02,04,13,11.40
2014,05,02,04,14,11.40
2014,05,02,04,15,11.40
2014,05,02,04,16,11.40
2014,05,02,04,17,11.40
2014,05,02,04,18,11.30
2014,05,02,04,19,11.30
2014,05,02,04,20,11.30
2014,05,02,04,21,11.30
2014,05,02,04,22,11.30
2014,05,02,04,23,11.20
2014,05,02,04,24,11.20
2014,05,02,04,25,11.20
2014,05,02,04,26,11.20
2014,05,02,04,27,11.20
2014,05,02,04,28,11.10
2014,05,02,04,29,11.10
2014,05,02,04,30,11.10
2014,05,02,04,31,11.10
2014,05,02,04,32,11.10
2014,05,02,04,33,11.10
2014,05,02,04,34,11.00
2014,05,02,04,35,11.00
2014,05,02,04,36,11.00
2014,05,02,04,37,10.90
2014,05,02,04,38,10.90
2014,05,02,04,39,10.90
2014,05,02,04,40,10.80
2014,05,02,04,41,10.80
2014,05,02,04,42,10.80
2014,05,02,04,43,10.80
2014,05,02,04,44,10.80
2014,05,02,04,45,10.70
2014,05,02,04,46,10.70
2014,05,02,04,47,10.70
2014,05,02,04,48,10.70
2014,05,02,04,49,10.70
2014,05,02,04,50,10.70
2014,05,02,04,51,10.70
2014,05,02,04,52,10.70
2014,05,02,04,53,10.70
2014,05,02,04,54,10.70
2014,05,02,04,55,10.60
2014,05,02,04,56,10.60
2014,05,02,04,57,10.60
2014,05,02,04,58,10.50
2014,05,02,04,59,10.50
2014,05,02,05,00,10.40
2014,05,02,05,01,10.40
2014,05,02,05,02,10.40
2014,05,02,05,03,10.40
2014,05,02,05,04,10.40
2014,05,02,05,05,10.40
2014,05,02,05,06,10.40
2014,05,02,05,07,10.40
2014,05,02,05,08,10.40
2014,05,02,05,09,10.50
2014,05,02,05,10,10.50
2014,05,02,05,11,10.50
2014,05,02,05,12,10.60
2014,05,02,05,13,10.60
2014,05,02,05,14,10.70
2014,05,02,05,15,10.70
2014,05,02,05,16,10.70
2014,05,02,05,17,10.80
2014,05,02,05,18,10.80
2014,05,02,05,19,10.80
2014,05,02,05,20,10.80
2014,05,02,05,21,10.80
2014,05,02,05,22,10.80
2014,05,02,05,23,10.80
2014,05,02,05,24,10.80
2014,05,02,05,25,10.80
2014,05,02,05,26,10.80
2014,05,02,05,27,10.80
2014,05,02,05,28,10.80
2014,05,02,05,29,10.80
2014,05,02,05,30,10.80
2014,05,02,05,31,10.80
2014,05,02,05,32,10.80
2014,05,02,05,33,10.70
2014,05,02,05,34,10.70
2014,05,02,05,35,10.70
2014,05,02,05,36,10.70
2014,05,02,05,37,10.70
2014,05,02,05,38,10.70
2014,05,02,05,39,10.70
2014,05,02,05,40,10.60
2014,05,02,05,41,10.60
2014,05,02,05,42,10.60
2014,05,02,05,43,10.60
2014,05,02,05,44,10.60
2014,05,02,05,45,10.60
2014,05,02,05,46,10.60
2014,05,02,05,47,10.60
2014,05,02,05,48,10.60
2014,05,02,05,49,10.60
2014,05,02,05,50,10.60
2014,05,02,05,51,10.60
2014,05,02,05,52,10.60
2014,05,02,05,53,10.60
2014,05,02,05,54,10.60
2014,05,02,05,55,10.60
2014,05,02,05,56,10.60
2014,05,02,05,57,10.60
2014,05,02,05,58,10.70
2014,05,02,05,59,10.70
2014,05,02,06,00,10.70
2014,05,02,06,01,10.70
2014,05,02,06,02,10.80
2014,05,02,06,03,10.80
2014,05,02,06,04,10.80
2014,05,02,06,05,10.80
2014,05,02,06,06,10.80
2014,05,02,06,07,10.80
2014,05,02,06,08,10.80
2014,05,02,06,09,10.90
2014,05,02,06,10,10.90
2014,05,02,06,11,10.90
2014,05,02,06,12,10.90
2014,05,02,06,13,10.90
2014,05,02,06,14,10.80
2014,05,02,06,15,10.80
2014,05,02,06,16,10.80
2014,05,02,06,17,10.80
2014,05,02,06,18,10.80
2014,05,02,06,19,10.80
2014,05,02,06,20,10.80
2014,05,02,06,21,10.80
2014,05,02,06,22,10.80
2014,05,02,06,23,10.90
2014,05,02,06,24,10.90
2014,05,02,06,25,10.90
2014,05,02,06,26,10.90
2014,05,02,06,27,10.90
2014,05,02,06,28,10.90
2014,05,02,06,29,11.00
2014,05,02,06,30,11.00
2014,05,02,06,31,11.10
2014,05,02,06,32,11.10
2014,05,02,06,33,11.20
2014,05,02,06,34,11.20
2014,05,02,06,35,11.30
2014,05,02,06,36,11.40
2014,05,02,06,37,11.60
2014,05,02,06,38,11.80
2014,05,02,06,39,12.10
2014,05,02,06,40,12.30
2014,05,02,06,41,12.50
2014,05,02,06,42,12.60
2014,05,02,06,43,12.70
2014,05,02,06,44,12.80
2014,05,02,06,45,12.90
2014,05,02,06,46,12.90
2014,05,02,06,47,13.00
2014,05,02,06,48,13.00
2014,05,02,06,49,13.10
2014,05,02,06,50,13.10
2014,05,02,06,51,13.20
2014,05,02,06,52,13.20
2014,05,02,06,53,13.30
2014,05,02,06,54,13.40
2014,05,02,06,55,13.50
2014,05,02,06,56,13.60
2014,05,02,06,57,13.70
2014,05,02,06,58,13.80
2014,05,02,06,59,13.90
2014,05,02,07,00,14.00
2014,05,02,07,01,14.10
2014,05,02,07,02,14.20
2014,05,02,07,03,14.30
2014,05,02,07,04,14.30
2014,05,02,07,05,14.40
2014,05,02,07,06,14.40
2014,05,02,07,07,14.40
2014,05,02,07,08,14.50
2014,05,02,07,09,14.50
2014,05,02,07,10,14.50
2014,05,02,07,11,14.60
2014,05,02,07,12,14.60
2014,05,02,07,13,14.70
2014,05,02,07,14,14.70
2014,05,02,07,15,14.80
2014,05,02,07,16,14.80
2014,05,02,07,17,14.90
2014,05,02,07,18,14.90
2014,05,02,07,19,15.00
2014,05,02,07,20,15.10
2014,05,02,07,21,15.20
2014,05,02,07,22,15.20
2014,05,02,07,23,15.20
2014,05,02,07,24,15.30
2014,05,02,07,25,15.40
2014,05,02,07,26,15.40
2014,05,02,07,27,15.50
2014,05,02,07,28,15.50
2014,05,02,07,29,15.50
2014,05,02,07,30,15.40
2014,05,02,07,31,15.40
2014,05,02,07,32,15.40
2014,05,02,07,33,15.30
2014,05,02,07,34,15.20
2014,05,02,07,35,15.00
2014,05,02,07,36,14.90
2014,05,02,07,37,14.70
2014,05,02,07,38,14.60
2014,05,02,07,39,14.40
2014,05,02,07,40,14.30
2014,05,02,07,41,14.20
2014,05,02,07,42,14.20
2014,05,02,07,43,14.20
2014,05,02,07,44,14.10
2014,05,02,07,45,14.10
2014,05,02,07,46,14.00
2014,05,02,07,47,14.00
2014,05,02,07,48,14.00
2014,05,02,07,49,13.90
2014,05,02,07,50,13.90
2014,05,02,07,51,14.00
2014,05,02,07,52,14.00
2014,05,02,07,53,14.00
2014,05,02,07,54,14.10
2014,05,02,07,55,14.10
2014,05,02,07,56,14.20
2014,05,02,07,57,14.20
2014,05,02,07,58,14.20
2014,05,02,07,59,14.30
2014,05,02,08,00,14.30
2014,05,02,08,01,14.30
2014,05,02,08,02,14.30
2014,05,02,08,03,14.20
2014,05,02,08,04,14.10
2014,05,02,08,05,14.10
2014,05,02,08,06,13.90
2014,05,02,08,07,13.90
2014,05,02,08,08,13.80
2014,05,02,08,09,13.70
2014,05,02,08,10,13.60
2014,05,02,08,11,13.60
2014,05,02,08,12,13.60
2014,05,02,08,13,13.60
2014,05,02,08,14,13.60
2014,05,02,08,15,13.50
2014,05,02,08,16,13.50
2014,05,02,08,17,13.50
2014,05,02,08,18,13.40
2014,05,02,08,19,13.50
2014,05,02,08,20,13.50
2014,05,02,08,21,13.50
2014,05,02,08,22,13.50
2014,05,02,08,23,13.60
2014,05,02,08,24,13.60
2014,05,02,08,25,13.60
2014,05,02,08,26,13.60
2014,05,02,08,27,13.60
2014,05,02,08,28,13.60
2014,05,02,08,29,13.70
2014,05,02,08,30,13.70
2014,05,02,08,31,13.70
2014,05,02,08,32,13.70
2014,05,02,08,33,13.80
2014,05,02,08,34,13.80
2014,05,02,08,35,13.90
2014,05,02,08,36,13.90
2014,05,02,08,37,13.90
2014,05,02,08,38,13.90
2014,05,02,08,39,14.00
2014,05,02,08,40,14.00
2014,05,02,08,41,14.00
2014,05,02,08,42,14.00
2014,05,02,08,43,14.00
2014,05,02,08,44,14.10
2014,05,02,08,45,14.10
2014,05,02,08,46,14.10
2014,05,02,08,47,14.10
2014,05,02,08,48,14.10
2014,05,02,08,49,14.10
2014,05,02,08,50,14.10
2014,05,02,08,51,14.10
2014,05,02,08,52,14.10
2014,05,02,08,53,14.10
2014,05,02,08,54,14.10
2014,05,02,08,55,14.10
2014,05,02,08,56,14.00
2014,05,02,08,57,14.00
2014,05,02,08,58,14.10
2014,05,02,08,59,14.10
2014,05,02,09,00,14.20
2014,05,02,09,01,14.20
2014,05,02,09,02,14.30
2014,05,02,09,03,14.30
2014,05,02,09,04,14.40
2014,05,02,09,05,14.40
2014,05,02,09,06,14.40
2014,05,02,09,07,14.40
2014,05,02,09,08,14.40
2014,05,02,09,09,14.40
2014,05,02,09,10,14.50
2014,05,02,09,11,14.50
2014,05,02,09,12,14.60
2014,05,02,09,13,14.60
2014,05,02,09,14,14.60
2014,05,02,09,15,14.60
2014,05,02,09,16,14.70
2014,05,02,09,17,14.70
2014,05,02,09,18,14.70
2014,05,02,09,19,14.70
2014,05,02,09,20,14.70
2014,05,02,09,21,14.60
2014,05,02,09,22,14.60
2014,05,02,09,23,14.60
2014,05,02,09,24,14.50
2014,05,02,09,25,14.50
2014,05,02,09,26,14.40
2014,05,02,09,27,14.40
2014,05,02,09,28,14.40
2014,05,02,09,29,14.30
2014,05,02,09,30,14.30
2014,05,02,09,31,14.30
2014,05,02,09,32,14.30
2014,05,02,09,33,14.30
2014,05,02,09,34,14.30
2014,05,02,09,35,14.30
2014,05,02,09,36,14.30
2014,05,02,09,37,14.40
2014,05,02,09,38,14.40
2014,05,02,09,39,14.40
2014,05,02,09,40,14.40
2014,05,02,09,41,14.50
2014,05,02,09,42,14.50
2014,05,02,09,43,14.50
2014,05,02,09,44,14.40
2014,05,02,09,45,14.40
2014,05,02,09,46,14.40
2014,05,02,09,47,14.40
2014,05,02,09,48,14.30
2014,05,02,09,49,14.30
2014,05,02,09,50,14.30
2014,05,02,09,51,14.30
2014,05,02,09,52,14.30
2014,05,02,09,53,14.30
2014,05,02,09,54,14.30
2014,05,02,09,55,14.30
2014,05,02,09,56,14.30
2014,05,02,09,57,14.30
2014,05,02,09,58,14.30
2014,05,02,09,59,14.40
2014,05,02,10,00,14.40
2014,05,02,10,01,14.40
2014,05,02,10,02,14.50
2014,05,02,10,03,14.60
2014,05,02,10,04,14.60
2014,05,02,10,05,14.60
2014,05,02,10,06,14.70
2014,05,02,10,07,14.70
2014,05,02,10,08,14.70
2014,05,02,10,09,14.80
2014,05,02,10,10,14.90
2014,05,02,10,11,14.90
2014,05,02,10,12,15.10
2014,05,02,10,13,15.20
2014,05,02,10,14,15.30
2014,05,02,10,15,15.40
2014,05,02,10,16,15.50
2014,05,02,10,17,15.60
2014,05,02,10,18,15.70
2014,05,02,10,19,15.70
2014,05,02,10,20,15.80
2014,05,02,10,21,15.90
2014,05,02,10,22,16.00
2014,05,02,10,23,16.10
2014,05,02,10,24,16.20
2014,05,02,10,25,16.20
2014,05,02,10,26,16.30
2014,05,02,10,27,16.40
2014,05,02,10,28,16.40
2014,05,02,10,29,16.50
2014,05,02,10,30,16.50
2014,05,02,10,31,16.60
2014,05,02,10,32,16.60
2014,05,02,10,33,16.60
2014,05,02,10,34,16.70
2014,05,02,10,35,16.70
2014,05,02,10,36,16.80
2014,05,02,10,37,16.90
2014,05,02,10,38,16.90
2014,05,02,10,39,16.90
2014,05,02,10,40,17.00
2014,05,02,10,41,17.10
2014,05,02,10,42,17.10
2014,05,02,10,43,17.20
2014,05,02,10,44,17.20
2014,05,02,10,45,17.20
2014,05,02,10,46,17.30
2014,05,02,10,47,17.30
2014,05,02,10,48,17.40
2014,05,02,10,49,17.40
2014,05,02,10,50,17.40
2014,05,02,10,51,17.40
2014,05,02,10,52,17.40
2014,05,02,10,53,17.40
2014,05,02,10,54,17.40
2014,05,02,10,55,17.50
2014,05,02,10,56,17.50
2014,05,02,10,57,17.60
2014,05,02,10,58,17.60
2014,05,02,10,59,17.60
2014,05,02,11,00,17.70
2014,05,02,11,01,17.70
2014,05,02,11,02,17.70
2014,05,02,11,03,17.70
2014,05,02,11,04,17.80
2014,05,02,11,05,17.80
2014,05,02,11,06,17.80
2014,05,02,11,07,17.80
2014,05,02,11,08,17.90
2014,05,02,11,09,17.90
2014,05,02,11,10,17.90
2014,05,02,11,11,17.90
2014,05,02,11,12,17.90
2014,05,02,11,13,17.90
2014,05,02,11,14,17.90
2014,05,02,11,15,17.90
2014,05,02,11,16,17.90
2014,05,02,11,17,17.90
2014,05,02,11,18,18.00
2014,05,02,11,19,18.00
2014,05,02,11,20,18.00
2014,05,02,11,21,18.00
2014,05,02,11,22,18.00
2014,05,02,11,23,18.00
2014,05,02,11,24,18.10
2014,05,02,11,25,18.10
2014,05,02,11,26,18.10
2014,05,02,11,27,18.20
2014,05,02,11,28,18.20
2014,05,02,11,29,18.20
2014,05,02,11,30,18.30
2014,05,02,11,31,18.30
2014,05,02,11,32,18.30
2014,05,02,11,33,18.30
2014,05,02,11,34,18.40
2014,05,02,11,35,18.30
2014,05,02,11,36,18.30
2014,05,02,11,37,18.40
2014,05,02,11,38,18.30
2014,05,02,11,39,18.30
2014,05,02,11,40,18.30
2014,05,02,11,41,18.40
2014,05,02,11,42,18.40
2014,05,02,11,43,18.30
2014,05,02,11,44,18.30
2014,05,02,11,45,18.40
2014,05,02,11,46,18.40
2014,05,02,11,47,18.50
2014,05,02,11,48,18.50
2014,05,02,11,49,18.60
2014,05,02,11,50,18.60
2014,05,02,11,51,18.70
2014,05,02,11,52,18.70
2014,05,02,11,53,18.70
2014,05,02,11,54,18.70
2014,05,02,11,55,18.70
2014,05,02,11,56,18.80
2014,05,02,11,57,18.80
2014,05,02,11,58,18.80
2014,05,02,11,59,18.80
2014,05,02,12,00,18.90
2014,05,02,12,01,18.90
2014,05,02,12,02,18.90
2014,05,02,12,03,18.90
2014,05,02,12,04,18.90
2014,05,02,12,05,18.90
2014,05,02,12,06,18.90
2014,05,02,12,07,18.90
2014,05,02,12,08,19.00
2014,05,02,12,09,19.00
2014,05,02,12,10,19.00
2014,05,02,12,11,19.10
2014,05,02,12,12,19.10
2014,05,02,12,13,19.10
2014,05,02,12,14,19.10
2014,05,02,12,15,19.10
2014,05,02,12,16,19.10
2014,05,02,12,17,19.10
2014,05,02,12,18,19.10
2014,05,02,12,19,19.10
2014,05,02,12,20,19.00
2014,05,02,12,21,19.00
2014,05,02,12,22,19.00
2014,05,02,12,23,19.00
2014,05,02,12,24,19.00
2014,05,02,12,25,19.00
2014,05,02,12,26,18.90
2014,05,02,12,27,18.80
2014,05,02,12,28,18.80
2014,05,02,12,29,18.80
2014,05,02,12,30,18.80
2014,05,02,12,31,18.80
2014,05,02,12,32,18.90
2014,05,02,12,33,18.90
2014,05,02,12,34,18.90
2014,05,02,12,35,18.90
2014,05,02,12,36,18.90
2014,05,02,12,37,19.00
2014,05,02,12,38,19.00
2014,05,02,12,39,19.10
2014,05,02,12,40,19.10
2014,05,02,12,41,19.10
2014,05,02,12,42,19.00
2014,05,02,12,43,18.90
2014,05,02,12,44,18.80
2014,05,02,12,45,18.80
2014,05,02,12,46,18.70
2014,05,02,12,47,18.70
2014,05,02,12,48,18.60
2014,05,02,12,49,18.50
2014,05,02,12,50,18.30
2014,05,02,12,51,18.20
2014,05,02,12,52,18.00
2014,05,02,12,53,17.90
2014,05,02,12,54,17.80
2014,05,02,12,55,17.80
2014,05,02,12,56,17.90
2014,05,02,12,57,18.10
2014,05,02,12,58,18.20
2014,05,02,12,59,18.40
2014,05,02,13,00,18.60
2014,05,02,13,01,18.70
2014,05,02,13,02,18.90
2014,05,02,13,03,19.00
2014,05,02,13,04,19.00
2014,05,02,13,05,19.00
2014,05,02,13,06,19.10
2014,05,02,13,07,19.20
2014,05,02,13,08,19.20
2014,05,02,13,09,19.30
2014,05,02,13,10,19.30
2014,05,02,13,11,19.40
2014,05,02,13,12,19.50
2014,05,02,13,13,19.50
2014,05,02,13,14,19.60
2014,05,02,13,15,19.60
2014,05,02,13,16,19.70
2014,05,02,13,17,19.80
2014,05,02,13,18,19.90
2014,05,02,13,19,19.90
2014,05,02,13,20,19.90
2014,05,02,13,21,19.80
2014,05,02,13,22,19.80
2014,05,02,13,23,19.70
2014,05,02,13,24,19.60
2014,05,02,13,25,19.60
2014,05,02,13,26,19.60
2014,05,02,13,27,19.60
2014,05,02,13,28,19.60
2014,05,02,13,29,19.50
2014,05,02,13,30,19.50
2014,05,02,13,31,19.50
2014,05,02,13,32,19.50
2014,05,02,13,33,19.40
2014,05,02,13,34,19.40
2014,05,02,13,35,19.30
2014,05,02,13,36,19.30
2014,05,02,13,37,19.30
2014,05,02,13,38,19.30
2014,05,02,13,39,19.30
2014,05,02,13,40,19.20
2014,05,02,13,41,19.20
2014,05,02,13,42,19.20
2014,05,02,13,43,19.20
2014,05,02,13,44,19.20
2014,05,02,13,45,19.20
2014,05,02,13,46,19.20
2014,05,02,13,47,19.20
2014,05,02,13,48,19.30
2014,05,02,13,49,19.30
2014,05,02,13,50,19.30
2014,05,02,13,51,19.30
2014,05,02,13,52,19.20
2014,05,02,13,53,19.20
2014,05,02,13,54,19.20
2014,05,02,13,55,19.20
2014,05,02,13,56,19.20
2014,05,02,13,57,19.20
2014,05,02,13,58,19.20
2014,05,02,13,59,19.20
2014,05,02,14,00,19.20
2014,05,02,14,01,19.20
2014,05,02,14,02,19.20
2014,05,02,14,03,19.20
2014,05,02,14,04,19.10
2014,05,02,14,05,19.00
2014,05,02,14,06,18.90
2014,05,02,14,07,18.80
2014,05,02,14,08,18.80
2014,05,02,14,09,18.80
2014,05,02,14,10,18.80
2014,05,02,14,11,18.80
2014,05,02,14,12,18.80
2014,05,02,14,13,18.90
2014,05,02,14,14,18.90
2014,05,02,14,15,18.90
2014,05,02,14,16,18.90
2014,05,02,14,17,18.90
2014,05,02,14,18,19.00
2014,05,02,14,19,18.90
2014,05,02,14,20,18.90
2014,05,02,14,21,18.80
2014,05,02,14,22,18.80
2014,05,02,14,23,18.70
2014,05,02,14,24,18.70
2014,05,02,14,25,18.70
2014,05,02,14,26,18.70
2014,05,02,14,27,18.70
2014,05,02,14,28,18.70
2014,05,02,14,29,18.70
2014,05,02,14,30,18.60
2014,05,02,14,31,18.60
2014,05,02,14,32,18.60
2014,05,02,14,33,18.60
2014,05,02,14,34,18.60
2014,05,02,14,35,18.60
2014,05,02,14,36,18.60
2014,05,02,14,37,18.60
2014,05,02,14,38,18.50
2014,05,02,14,39,18.50
2014,05,02,14,40,18.40
2014,05,02,14,41,18.40
2014,05,02,14,42,18.40
2014,05,02,14,43,18.40
2014,05,02,14,44,18.40
2014,05,02,14,45,18.30
2014,05,02,14,46,18.30
2014,05,02,14,47,18.30
2014,05,02,14,48,18.30
2014,05,02,14,49,18.30
2014,05,02,14,50,18.30
2014,05,02,14,51,18.30
2014,05,02,14,52,18.40
2014,05,02,14,53,18.40
2014,05,02,14,54,18.40
2014,05,02,14,55,18.40
2014,05,02,14,56,18.40
2014,05,02,14,57,18.30
2014,05,02,14,58,18.30
2014,05,02,14,59,18.30
2014,05,02,15,00,18.30
2014,05,02,15,01,18.30
2014,05,02,15,02,18.30
2014,05,02,15,03,18.30
2014,05,02,15,04,18.30
2014,05,02,15,05,18.30
2014,05,02,15,06,18.30
2014,05,02,15,07,18.30
2014,05,02,15,08,18.30
2014,05,02,15,09,18.30
2014,05,02,15,10,18.30
2014,05,02,15,11,18.30
2014,05,02,15,12,18.40
2014,05,02,15,13,18.40
2014,05,02,15,14,18.40
2014,05,02,15,15,18.50
2014,05,02,15,16,18.50
2014,05,02,15,17,18.50
2014,05,02,15,18,18.60
2014,05,02,15,19,18.60
2014,05,02,15,20,18.60
2014,05,02,15,21,18.60
2014,05,02,15,22,18.70
2014,05,02,15,23,18.70
2014,05,02,15,24,18.70
2014,05,02,15,25,18.70
2014,05,02,15,26,18.70
2014,05,02,15,27,18.70
2014,05,02,15,28,18.70
2014,05,02,15,29,18.60
2014,05,02,15,30,18.60
2014,05,02,15,31,18.60
2014,05,02,15,32,18.60
2014,05,02,15,33,18.60
2014,05,02,15,34,18.60
2014,05,02,15,35,18.60
2014,05,02,15,36,18.60
2014,05,02,15,37,18.60
2014,05,02,15,38,18.60
2014,05,02,15,39,18.60
2014,05,02,15,40,18.60
2014,05,02,15,41,18.60
2014,05,02,15,42,18.60
2014,05,02,15,43,18.70
2014,05,02,15,44,18.70
2014,05,02,15,45,18.80
2014,05,02,15,46,18.80
2014,05,02,15,47,18.80
2014,05,02,15,48,18.90
2014,05,02,15,49,19.00
2014,05,02,15,50,19.10
2014,05,02,15,51,19.10
2014,05,02,15,52,19.10
2014,05,02,15,53,19.10
2014,05,02,15,54,19.00
2014,05,02,15,55,19.00
2014,05,02,15,56,19.00
2014,05,02,15,57,19.00
2014,05,02,15,58,19.00
2014,05,02,15,59,19.00
2014,05,02,16,00,19.10
2014,05,02,16,01,19.10
2014,05,02,16,02,19.10
2014,05,02,16,03,19.10
2014,05,02,16,04,19.20
2014,05,02,16,05,19.20
2014,05,02,16,06,19.20
2014,05,02,16,07,19.20
2014,05,02,16,08,19.20
2014,05,02,16,09,19.10
2014,05,02,16,10,19.10
2014,05,02,16,11,19.10
2014,05,02,16,12,19.20
2014,05,02,16,13,19.20
2014,05,02,16,14,19.30
2014,05,02,16,15,19.30
2014,05,02,16,16,19.40
2014,05,02,16,17,19.40
2014,05,02,16,18,19.50
2014,05,02,16,19,19.50
2014,05,02,16,20,19.50
2014,05,02,16,21,19.50
2014,05,02,16,22,19.50
2014,05,02,16,23,19.40
2014,05,02,16,24,19.40
2014,05,02,16,25,19.40
2014,05,02,16,26,19.40
2014,05,02,16,27,19.30
2014,05,02,16,28,19.30
2014,05,02,16,29,19.30
2014,05,02,16,30,19.30
2014,05,02,16,31,19.30
2014,05,02,16,32,19.40
2014,05,02,16,33,19.30
2014,05,02,16,34,19.30
2014,05,02,16,35,19.30
2014,05,02,16,36,19.30
2014,05,02,16,37,19.30
2014,05,02,16,38,19.30
2014,05,02,16,39,19.40
2014,05,02,16,40,19.40
2014,05,02,16,41,19.40
2014,05,02,16,42,19.40
2014,05,02,16,43,19.40
2014,05,02,16,44,19.50
2014,05,02,16,45,19.60
2014,05,02,16,46,19.60
2014,05,02,16,47,19.70
2014,05,02,16,48,19.70
2014,05,02,16,49,19.70
2014,05,02,16,50,19.70
2014,05,02,16,51,19.70
2014,05,02,16,52,19.70
2014,05,02,16,53,19.70
2014,05,02,16,54,19.60
2014,05,02,16,55,19.60
2014,05,02,16,56,19.60
2014,05,02,16,57,19.50
2014,05,02,16,58,19.50
2014,05,02,16,59,19.50
2014,05,02,17,00,19.50
2014,05,02,17,01,19.60
2014,05,02,17,02,19.60
2014,05,02,17,03,19.60
2014,05,02,17,04,19.50
2014,05,02,17,05,19.50
2014,05,02,17,06,19.30
2014,05,02,17,07,19.30
2014,05,02,17,08,19.20
2014,05,02,17,09,19.10
2014,05,02,17,10,19.00
2014,05,02,17,11,19.00
2014,05,02,17,12,19.00
2014,05,02,17,13,19.00
2014,05,02,17,14,19.10
2014,05,02,17,15,19.10
2014,05,02,17,16,19.20
2014,05,02,17,17,19.30
2014,05,02,17,18,19.40
2014,05,02,17,19,19.40
2014,05,02,17,20,19.50
2014,05,02,17,21,19.50